| time (UTC) | temp F | wind direction | speed MPH | gust MPH | rain 1hr in | rain 24hr in | rain mn in | humidity % | barometer mb |
| 20260507124008 | 77 | 240 | 8.0 | 9.0 | 0.00 | 0.00 | 0.00 | 27 | |
| 20260507123501 | 77 | 266 | 4.0 | 6.0 | 0.00 | 0.00 | 0.00 | 25 | |
| 20260507123000 | 78 | 274 | 3.0 | 4.0 | 0.00 | 0.00 | 0.00 | 28 | |
| 20260507122500 | 79 | 242 | 9.0 | 10.0 | 0.00 | 0.00 | 0.00 | 26 | |
| 20260507122001 | 79 | 237 | 9.0 | 9.0 | 0.00 | 0.00 | 0.00 | 25 | |
| 20260507121501 | 80 | 191 | 7.0 | 7.0 | 0.00 | 0.00 | 0.00 | 24 | |
| 20260507121001 | 79 | 185 | 4.0 | 6.0 | 0.00 | 0.00 | 0.00 | 26 | |
| 20260507120500 | 79 | 219 | 6.0 | 9.0 | 0.00 | 0.00 | 0.00 | 26 | |
| 20260507120000 | 80 | 191 | 5.0 | 9.0 | 0.00 | 0.00 | 0.00 | 24 | |
| 20260507115500 | 79 | 170 | 2.0 | 2.0 | 0.00 | 0.00 | 0.00 | 24 | |
| 20260507115000 | 79 | 233 | 7.0 | 13.0 | 0.00 | 0.00 | 0.00 | 25 | |
| 20260507114500 | 80 | 232 | 4.0 | 7.0 | 0.00 | 0.00 | 0.00 | 24 | |
| 20260507114000 | 79 | 254 | 7.0 | 10.0 | 0.00 | 0.00 | 0.00 | 25 | |
| 20260507113501 | 79 | 256 | 4.0 | 5.0 | 0.00 | 0.00 | 0.00 | 25 | |
| 20260507113000 | 80 | 214 | 4.0 | 5.0 | 0.00 | 0.00 | 0.00 | 25 | |
| 20260507112500 | 80 | 175 | 8.0 | 9.0 | 0.00 | 0.00 | 0.00 | 25 | |
| 20260507112000 | 79 | 214 | 4.0 | 5.0 | 0.00 | 0.00 | 0.00 | 23 | |
| 20260507111500 | 79 | 192 | 2.0 | 5.0 | 0.00 | 0.00 | 0.00 | 24 | |
| 20260507111000 | 80 | 216 | 5.0 | 8.0 | 0.00 | 0.00 | 0.00 | 24 | |
| 20260507110500 | 80 | 287 | 6.0 | 6.0 | 0.00 | 0.00 | 0.00 | 25 | |
| 20260507110000 | 78 | 182 | 4.0 | 8.0 | 0.00 | 0.00 | 0.00 | 26 | |
| 20260507105500 | 78 | 200 | 8.0 | 11.0 | 0.00 | 0.00 | 0.00 | 26 | |
| 20260507105000 | 77 | 213 | 5.0 | 7.0 | 0.00 | 0.00 | 0.00 | 25 | |
| 20260507104500 | 78 | 182 | 2.0 | 5.0 | 0.00 | 0.00 | 0.00 | 24 | |
| 20260507104000 | 78 | 236 | 7.0 | 9.0 | 0.00 | 0.00 | 0.00 | 25 | |
| 20260507103500 | 79 | 170 | 6.0 | 6.0 | 0.00 | 0.00 | 0.00 | 26 | |
| 20260507103000 | 78 | 172 | 2.0 | 6.0 | 0.00 | 0.00 | 0.00 | 25 | |
| 20260507102500 | 78 | 194 | 9.0 | 10.0 | 0.00 | 0.00 | 0.00 | 24 | |
| 20260507102001 | 78 | 181 | 4.0 | 6.0 | 0.00 | 0.00 | 0.00 | 26 | |
| 20260507101500 | 79 | 174 | 8.0 | 9.0 | 0.00 | 0.00 | 0.00 | 27 | |
| 20260507101000 | 77 | 244 | 5.0 | 5.0 | 0.00 | 0.00 | 0.00 | 24 | |
| 20260507100500 | 78 | 201 | 2.0 | 2.0 | 0.00 | 0.00 | 0.00 | 27 | |
| 20260507100000 | 78 | 217 | 4.0 | 7.0 | 0.00 | 0.00 | 0.00 | 26 | |
| 20260507095500 | 78 | 201 | 4.0 | 5.0 | 0.00 | 0.00 | 0.00 | 28 | |
| 20260507095000 | 78 | 191 | 3.0 | 4.0 | 0.00 | 0.00 | 0.00 | 28 | |
| 20260507094500 | 78 | 213 | 7.0 | 8.0 | 0.00 | 0.00 | 0.00 | 28 | |
| 20260507094000 | 78 | 191 | 6.0 | 11.0 | 0.00 | 0.00 | 0.00 | 27 | |
| 20260507093500 | 78 | 355 | 3.0 | 6.0 | 0.00 | 0.00 | 0.00 | 27 | |
| 20260507093000 | 77 | 273 | 4.0 | 5.0 | 0.00 | 0.00 | 0.00 | 30 | |
| 20260507092501 | 77 | 212 | 0.0 | 4.0 | 0.00 | 0.00 | 0.00 | 28 | |
| 20260507092000 | 77 | 264 | 9.0 | 9.0 | 0.00 | 0.00 | 0.00 | 29 | |
| 20260507091500 | 78 | 213 | 4.0 | 6.0 | 0.00 | 0.00 | 0.00 | 28 | |
| 20260507091000 | 77 | 182 | 8.0 | 9.0 | 0.00 | 0.00 | 0.00 | 30 | |
| 20260507090500 | 77 | 182 | 8.0 | 9.0 | 0.00 | 0.00 | 0.00 | 27 | |
| 20260507090001 | 77 | 194 | 5.0 | 9.0 | 0.00 | 0.00 | 0.00 | 30 | |
| 20260507085500 | 77 | 230 | 3.0 | 4.0 | 0.00 | 0.00 | 0.00 | 32 | |
| 20260507085000 | 76 | 274 | 4.0 | 6.0 | 0.00 | 0.00 | 0.00 | 30 | |
| 20260507084500 | 77 | 254 | 7.0 | 7.0 | 0.00 | 0.00 | 0.00 | 29 | |
| 20260507084000 | 76 | 192 | 7.0 | 9.0 | 0.00 | 0.00 | 0.00 | 31 | |
| 20260507083500 | 76 | 238 | 2.0 | 4.0 | 0.00 | 0.00 | 0.00 | 31 | |
| 20260507083000 | 75 | 227 | 4.0 | 5.0 | 0.00 | 0.00 | 0.00 | 29 | |
| 20260507082500 | 76 | 256 | 3.0 | 6.0 | 0.00 | 0.00 | 0.00 | 30 | |
| 20260507082000 | 76 | 262 | 5.0 | 5.0 | 0.00 | 0.00 | 0.00 | 29 | |
| 20260507081500 | 76 | 279 | 4.0 | 4.0 | 0.00 | 0.00 | 0.00 | 31 | |
| 20260507081000 | 76 | 180 | 5.0 | 7.0 | 0.00 | 0.00 | 0.00 | 29 | |
| 20260507080500 | 76 | 234 | 3.0 | 6.0 | 0.00 | 0.00 | 0.00 | 32 | |
| 20260507080000 | 76 | 249 | 7.0 | 9.0 | 0.00 | 0.00 | 0.00 | 30 | |
| 20260507075500 | 76 | 247 | 5.0 | 5.0 | 0.00 | 0.00 | 0.00 | 31 | |
| 20260507075000 | 75 | 191 | 3.0 | 5.0 | 0.00 | 0.00 | 0.00 | 33 | |
| 20260507074500 | 73 | 355 | 4.0 | 4.0 | 0.00 | 0.00 | 0.00 | 39 | |
| 20260507074000 | 72 | 8 | 3.0 | 3.0 | 0.00 | 0.00 | 0.00 | 47 | |
| 20260507073500 | 73 | 10 | 2.0 | 2.0 | 0.00 | 0.00 | 0.00 | 37 | |
| 20260507073000 | 71 | 276 | 2.0 | 6.0 | 0.00 | 0.00 | 0.00 | 47 | |
| 20260507072500 | 70 | 352 | 6.0 | 6.0 | 0.00 | 0.00 | 0.00 | 49 | |
| 20260507072000 | 69 | 33 | 4.0 | 5.0 | 0.00 | 0.00 | 0.00 | 49 | |
| 20260507071500 | 69 | 358 | 4.0 | 5.0 | 0.00 | 0.00 | 0.00 | 50 | |
| 20260507071000 | 69 | 6 | 6.0 | 6.0 | 0.00 | 0.00 | 0.00 | 51 | |
| 20260507070500 | 68 | 14 | 2.0 | 3.0 | 0.00 | 0.00 | 0.00 | 50 | |
| 20260507070000 | 68 | 17 | 3.0 | 3.0 | 0.00 | 0.00 | 0.00 | 49 | |
| 20260507065500 | 68 | 3 | 2.0 | 3.0 | 0.00 | 0.00 | 0.00 | 50 | |
| 20260507065000 | 68 | 7 | 4.0 | 4.0 | 0.00 | 0.00 | 0.00 | 50 | |
| 20260507064500 | 68 | 13 | 1.0 | 2.0 | 0.00 | 0.00 | 0.00 | 52 | |
| 20260507064000 | 68 | 18 | 3.0 | 3.0 | 0.00 | 0.00 | 0.00 | 52 | |
| 20260507063500 | 67 | 26 | 2.0 | 4.0 | 0.00 | 0.00 | 0.00 | 54 | |
| 20260507063000 | 66 | 317 | 0.0 | 1.0 | 0.00 | 0.00 | 0.00 | 53 | |
| 20260507062500 | 66 | 0 | 3.0 | 3.0 | 0.00 | 0.00 | 0.00 | 54 | |
| 20260507062002 | 67 | 5 | 2.0 | 3.0 | 0.00 | 0.00 | 0.00 | 54 | |
| 20260507061502 | 68 | 350 | 2.0 | 2.0 | 0.00 | 0.00 | 0.00 | 52 | |
| 20260507061000 | 69 | 82 | 2.0 | 3.0 | 0.00 | 0.00 | 0.00 | 51 | |
| 20260507060500 | 68 | 42 | 2.0 | 2.0 | 0.00 | 0.00 | 0.00 | 53 | |
| 20260507060000 | 66 | 165 | 0.0 | 0.0 | 0.00 | 0.00 | 0.00 | 53 | |
| 20260507055500 | 66 | 210 | 0.0 | 1.0 | 0.00 | 0.00 | 0.00 | 54 | |
| 20260507055000 | 64 | 304 | 0.0 | 1.0 | 0.00 | 0.00 | 0.00 | 57 | |
| 20260507054500 | 64 | 269 | 1.0 | 2.0 | 0.00 | 0.00 | 0.00 | 56 | |
| 20260507054000 | 63 | 219 | 0.0 | 2.0 | 0.00 | 0.00 | 0.00 | 57 | |
| 20260507053500 | 63 | 227 | 1.0 | 1.0 | 0.00 | 0.00 | 0.00 | 57 | |
| 20260507053000 | 63 | 235 | 0.0 | 1.0 | 0.00 | 0.00 | 0.00 | 57 | |
| 20260507052500 | 63 | 333 | 0.0 | 1.0 | 0.00 | 0.00 | 0.00 | 59 | |
| 20260507052000 | 62 | 32 | 0.0 | 0.0 | 0.00 | 0.00 | 0.00 | 57 | |
| 20260507051500 | 61 | 324 | 0.0 | 0.0 | 0.00 | 0.00 | 0.00 | 58 | |
| 20260507051000 | 59 | 249 | 0.0 | 0.0 | 0.00 | 0.00 | 0.00 | 64 | |
| 20260507050500 | 58 | 31 | 0.0 | 1.0 | 0.00 | 0.00 | 0.00 | 67 | |
| 20260507050000 | 58 | 305 | 1.0 | 1.0 | 0.00 | 0.00 | 0.00 | 65 | |
| 20260507045500 | 58 | 288 | 1.0 | 2.0 | 0.00 | 0.00 | 0.00 | 67 | |
| 20260507045000 | 58 | 267 | 0.0 | 0.0 | 0.00 | 0.00 | 0.00 | 65 | |
| 20260507044500 | 59 | 275 | 1.0 | 2.0 | 0.00 | 0.00 | 0.00 | 64 | |
| 20260507044000 | 60 | 303 | 0.0 | 1.0 | 0.00 | 0.00 | 0.00 | 55 | |
| 20260507043500 | 59 | 285 | 0.0 | 0.0 | 0.00 | 0.00 | 0.00 | 63 | |
| 20260507043000 | 58 | 237 | 0.0 | 0.0 | 0.00 | 0.00 | 0.00 | 60 | |
| 20260507042500 | 57 | 167 | 0.0 | 0.0 | 0.00 | 0.00 | 0.00 | 65 | |
| 20260507042000 | 54 | 49 | 1.0 | 1.0 | 0.00 | 0.00 | 0.00 | 69 | |
| 20260507041500 | 52 | 86 | 1.0 | 1.0 | 0.00 | 0.00 | 0.00 | 73 | |
| 20260507041000 | 51 | 84 | 0.0 | 0.0 | 0.00 | 0.00 | 0.00 | 73 | |
| 20260507040500 | 52 | 310 | 0.0 | 1.0 | 0.00 | 0.00 | 0.00 | 70 | |
| 20260507040000 | 52 | 278 | 0.0 | 0.0 | 0.00 | 0.00 | 0.00 | 69 | |
| 20260507035500 | 51 | 4 | 0.0 | 0.0 | 0.00 | 0.00 | 0.00 | 71 | |
| 20260507035000 | 51 | 269 | 0.0 | 0.0 | 0.00 | 0.00 | 0.00 | 71 | |
| 20260507034500 | 51 | 296 | 1.0 | 2.0 | 0.00 | 0.00 | 0.00 | 70 | |
| 20260507034000 | 52 | 230 | 0.0 | 0.0 | 0.00 | 0.00 | 0.00 | 69 | |
| 20260507033500 | 52 | 117 | 0.0 | 1.0 | 0.00 | 0.00 | 0.00 | 69 | |
| 20260507033000 | 51 | 85 | 1.0 | 1.0 | 0.00 | 0.00 | 0.00 | 68 | |
| 20260507032500 | 50 | 184 | 0.0 | 0.0 | 0.00 | 0.00 | 0.00 | 70 | |
| 20260507032000 | 49 | 260 | 2.0 | 2.0 | 0.00 | 0.00 | 0.00 | 72 | |
| 20260507031500 | 49 | 146 | 0.0 | 1.0 | 0.00 | 0.00 | 0.00 | 74 | |
| 20260507031000 | 49 | 49 | 0.0 | 1.0 | 0.00 | 0.00 | 0.00 | 75 | |
| 20260507030500 | 49 | 103 | 2.0 | 2.0 | 0.00 | 0.00 | 0.00 | 76 | |
| 20260507030000 | 48 | 130 | 1.0 | 1.0 | 0.00 | 0.00 | 0.00 | 79 | |
| 20260507025500 | 47 | 142 | 2.0 | 2.0 | 0.00 | 0.00 | 0.00 | 80 | |
| 20260507025000 | 48 | 293 | 0.0 | 1.0 | 0.00 | 0.00 | 0.00 | 78 | |
| 20260507024500 | 49 | 327 | 0.0 | 1.0 | 0.00 | 0.00 | 0.00 | 75 | |
| 20260507024000 | 50 | 302 | 0.0 | 2.0 | 0.00 | 0.00 | 0.00 | 71 | |
| 20260507023500 | 51 | 217 | 0.0 | 0.0 | 0.00 | 0.00 | 0.00 | 70 | |
| 20260507023000 | 50 | 142 | 0.0 | 0.0 | 0.00 | 0.00 | 0.00 | 72 | |
| 20260507022500 | 50 | 56 | 2.0 | 2.0 | 0.00 | 0.00 | 0.00 | 73 | |
| 20260507022000 | 49 | 178 | 2.0 | 2.0 | 0.00 | 0.00 | 0.00 | 75 | |
| 20260507021500 | 49 | 275 | 1.0 | 2.0 | 0.00 | 0.00 | 0.00 | 76 | |
| 20260507021000 | 49 | 271 | 1.0 | 2.0 | 0.00 | 0.00 | 0.00 | 77 | |
| 20260507020500 | 49 | 165 | 0.0 | 1.0 | 0.00 | 0.00 | 0.00 | 76 | |
| 20260507020000 | 49 | 297 | 2.0 | 3.0 | 0.00 | 0.00 | 0.00 | 78 | |
| 20260507015501 | 48 | 148 | 1.0 | 1.0 | 0.00 | 0.00 | 0.00 | 79 | |
| 20260507015000 | 49 | 276 | 2.0 | 2.0 | 0.00 | 0.00 | 0.00 | 78 | |
| 20260507014501 | 49 | 62 | 0.0 | 0.0 | 0.00 | 0.00 | 0.00 | 77 | |
| 20260507014000 | 50 | 281 | 1.0 | 1.0 | 0.00 | 0.00 | 0.00 | 75 | |
| 20260507013500 | 50 | 283 | 0.0 | 1.0 | 0.00 | 0.00 | 0.00 | 74 | |
| 20260507013001 | 49 | 262 | 0.0 | 1.0 | 0.00 | 0.00 | 0.00 | 76 | |
| 20260507012501 | 49 | 124 | 0.0 | 0.0 | 0.00 | 0.00 | 0.00 | 77 | |
| 20260507012001 | 49 | 334 | 2.0 | 2.0 | 0.00 | 0.00 | 0.00 | 79 | |
| 20260507011500 | 48 | 298 | 2.0 | 2.0 | 0.00 | 0.00 | 0.00 | 79 | |
| 20260507011000 | 49 | 212 | 0.0 | 0.0 | 0.00 | 0.00 | 0.00 | 79 | |
| 20260507010500 | 49 | 303 | 3.0 | 4.0 | 0.00 | 0.00 | 0.00 | 78 | |
| 20260507010000 | 48 | 149 | 2.0 | 2.0 | 0.00 | 0.00 | 0.00 | 81 | |
| 20260507005500 | 48 | 170 | 1.0 | 2.0 | 0.00 | 0.00 | 0.00 | 80 | |
| 20260507005000 | 49 | 263 | 0.0 | 2.0 | 0.00 | 0.00 | 0.00 | 78 | |
| 20260507004500 | 51 | 293 | 0.0 | 1.0 | 0.00 | 0.00 | 0.00 | 74 | |
| 20260507004000 | 51 | 358 | 0.0 | 0.0 | 0.00 | 0.00 | 0.00 | 71 | |
| 20260507003500 | 52 | 241 | 0.0 | 1.0 | 0.00 | 0.00 | 0.00 | 71 | |
| 20260507003000 | 51 | 269 | 1.0 | 2.0 | 0.00 | 0.00 | 0.00 | 72 | |
| 20260507002500 | 51 | 4 | 1.0 | 2.0 | 0.00 | 0.00 | 0.00 | 73 | |
| 20260507002000 | 51 | 358 | 2.0 | 2.0 | 0.00 | 0.00 | 0.00 | 72 | |
| 20260507001500 | 51 | 34 | 3.0 | 3.0 | 0.00 | 0.00 | 0.00 | 74 | |
| 20260507001000 | 50 | 45 | 3.0 | 3.0 | 0.00 | 0.00 | 0.00 | 77 | |
| 20260507000500 | 51 | 329 | 3.0 | 4.0 | 0.00 | 0.00 | 0.00 | 75 | |
| 20260507000000 | 51 | 322 | 2.0 | 2.0 | 0.00 | 0.00 | 0.00 | 73 | |
| 20260506235500 | 51 | 166 | 2.0 | 2.0 | 0.00 | 0.00 | 0.00 | 75 | |
| 20260506235000 | 50 | 150 | 1.0 | 2.0 | 0.00 | 0.00 | 0.00 | 77 | |
| 20260506234500 | 50 | 114 | 0.0 | 2.0 | 0.00 | 0.00 | 0.00 | 77 | |
| 20260506234000 | 50 | 152 | 1.0 | 1.0 | 0.00 | 0.00 | 0.00 | 76 | |
| 20260506233500 | 52 | 315 | 2.0 | 2.0 | 0.00 | 0.00 | 0.00 | 72 | |
| 20260506233000 | 52 | 242 | 0.0 | 1.0 | 0.00 | 0.00 | 0.00 | 72 | |
| 20260506232500 | 51 | 81 | 0.0 | 0.0 | 0.00 | 0.00 | 0.00 | 75 | |
| 20260506232001 | 51 | 153 | 0.0 | 0.0 | 0.00 | 0.00 | 0.00 | 75 | |
| 20260506231500 | 51 | 282 | 2.0 | 2.0 | 0.00 | 0.00 | 0.00 | 75 | |
| 20260506231000 | 51 | 237 | 0.0 | 2.0 | 0.00 | 0.00 | 0.00 | 75 | |
| 20260506230500 | 50 | 339 | 0.0 | 0.0 | 0.00 | 0.00 | 0.00 | 76 | |
| 20260506230000 | 50 | 25 | 0.0 | 1.0 | 0.00 | 0.00 | 0.00 | 77 | |
| 20260506225500 | 50 | 117 | 0.0 | 0.0 | 0.00 | 0.00 | 0.00 | 76 | |
| 20260506225000 | 51 | 308 | 1.0 | 1.0 | 0.00 | 0.00 | 0.00 | 75 | |
| 20260506224500 | 51 | 322 | 0.0 | 0.0 | 0.00 | 0.00 | 0.00 | 75 | |
| 20260506224000 | 51 | 299 | 0.0 | 0.0 | 0.00 | 0.00 | 0.00 | 74 | |
| 20260506223500 | 51 | 70 | 2.0 | 2.0 | 0.00 | 0.00 | 0.00 | 74 | |
| 20260506223000 | 51 | 54 | 3.0 | 3.0 | 0.00 | 0.00 | 0.00 | 74 | |
| 20260506222500 | 52 | 311 | 0.0 | 0.0 | 0.00 | 0.00 | 0.00 | 72 | |
| 20260506222001 | 53 | 269 | 0.0 | 0.0 | 0.00 | 0.00 | 0.00 | 71 | |
| 20260506221500 | 53 | 351 | 1.0 | 1.0 | 0.00 | 0.00 | 0.00 | 71 | |
| 20260506221001 | 52 | 148 | 2.0 | 2.0 | 0.00 | 0.00 | 0.00 | 73 | |
| 20260506220500 | 52 | 146 | 2.0 | 3.0 | 0.00 | 0.00 | 0.00 | 73 | |
| 20260506220000 | 52 | 337 | 0.0 | 0.0 | 0.00 | 0.00 | 0.00 | 73 | |
| 20260506215500 | 52 | 184 | 0.0 | 1.0 | 0.00 | 0.00 | 0.00 | 73 | |
| 20260506215000 | 51 | 301 | 2.0 | 2.0 | 0.00 | 0.00 | 0.00 | 75 | |
| 20260506214500 | 51 | 307 | 2.0 | 2.0 | 0.00 | 0.00 | 0.00 | 75 | |
| 20260506214000 | 52 | 296 | 1.0 | 2.0 | 0.00 | 0.00 | 0.00 | 73 | |
| 20260506213500 | 52 | 334 | 0.0 | 0.0 | 0.00 | 0.00 | 0.00 | 71 | |
| 20260506213000 | 52 | 89 | 0.0 | 0.0 | 0.00 | 0.00 | 0.00 | 72 | |
| 20260506212501 | 52 | 37 | 0.0 | 0.0 | 0.00 | 0.00 | 0.00 | 72 | |
| 20260506212000 | 52 | 153 | 2.0 | 2.0 | 0.00 | 0.00 | 0.00 | 72 | |
| 20260506211500 | 51 | 185 | 1.0 | 2.0 | 0.00 | 0.00 | 0.00 | 76 | |
| 20260506211000 | 51 | 194 | 2.0 | 3.0 | 0.00 | 0.00 | 0.00 | 77 | |
| 20260506210502 | 51 | 214 | 3.0 | 3.0 | 0.00 | 0.00 | 0.00 | 74 | |
| 20260506210000 | 53 | 230 | 4.0 | 5.0 | 0.00 | 0.00 | 0.00 | 69 | |
| 20260506205500 | 55 | 105 | 2.0 | 3.0 | 0.00 | 0.00 | 0.00 | 65 | |
| 20260506205000 | 56 | 101 | 5.0 | 6.0 | 0.00 | 0.00 | 0.00 | 63 | |
| 20260506204500 | 56 | 135 | 3.0 | 4.0 | 0.00 | 0.00 | 0.00 | 62 | |
| 20260506204000 | 55 | 99 | 3.0 | 4.0 | 0.00 | 0.00 | 0.00 | 63 | |
| 20260506203500 | 55 | 25 | 0.0 | 0.0 | 0.00 | 0.00 | 0.00 | 64 | |
| 20260506203000 | 55 | 11 | 3.0 | 3.0 | 0.00 | 0.00 | 0.00 | 64 | |
| 20260506202500 | 54 | 16 | 4.0 | 4.0 | 0.00 | 0.00 | 0.00 | 66 | |
| 20260506202000 | 54 | 338 | 2.0 | 2.0 | 0.00 | 0.00 | 0.00 | 66 | |
| 20260506201500 | 55 | 18 | 2.0 | 2.0 | 0.00 | 0.00 | 0.00 | 64 | |
| 20260506201000 | 55 | 62 | 4.0 | 4.0 | 0.00 | 0.00 | 0.00 | 65 | |
| 20260506200500 | 54 | 160 | 2.0 | 3.0 | 0.00 | 0.00 | 0.00 | 69 | |
| 20260506200000 | 54 | 57 | 0.0 | 1.0 | 0.00 | 0.00 | 0.00 | 69 | |
| 20260506195500 | 54 | 188 | 2.0 | 4.0 | 0.00 | 0.00 | 0.00 | 68 | |
| 20260506195000 | 54 | 220 | 2.0 | 2.0 | 0.00 | 0.00 | 0.00 | 70 | |
| 20260506194500 | 54 | 6 | 0.0 | 1.0 | 0.00 | 0.00 | 0.00 | 71 | |
| 20260506194000 | 54 | 11 | 2.0 | 3.0 | 0.00 | 0.00 | 0.00 | 69 | |
| 20260506193500 | 55 | 328 | 3.0 | 3.0 | 0.00 | 0.00 | 0.00 | 68 | |
| 20260506193000 | 55 | 172 | 1.0 | 2.0 | 0.00 | 0.00 | 0.00 | 67 | |
| 20260506192500 | 55 | 212 | 1.0 | 2.0 | 0.00 | 0.00 | 0.00 | 68 | |
| 20260506192000 | 54 | 278 | 0.0 | 1.0 | 0.00 | 0.00 | 0.00 | 69 | |
| 20260506191500 | 54 | 284 | 0.0 | 2.0 | 0.00 | 0.00 | 0.00 | 70 | |
| 20260506191000 | 54 | 330 | 2.0 | 4.0 | 0.00 | 0.00 | 0.00 | 69 | |
| 20260506190501 | 54 | 318 | 2.0 | 4.0 | 0.00 | 0.00 | 0.00 | 70 | |
| 20260506190001 | 55 | 312 | 4.0 | 4.0 | 0.00 | 0.00 | 0.00 | 69 | |
| 20260506185500 | 55 | 242 | 0.0 | 0.0 | 0.00 | 0.00 | 0.00 | 68 | |
| 20260506185000 | 56 | 342 | 1.0 | 2.0 | 0.00 | 0.00 | 0.00 | 67 | |
| 20260506184501 | 56 | 324 | 2.0 | 2.0 | 0.00 | 0.00 | 0.00 | 66 | |
| 20260506184000 | 56 | 217 | 0.0 | 0.0 | 0.00 | 0.00 | 0.00 | 66 | |
| 20260506183500 | 56 | 211 | 0.0 | 1.0 | 0.00 | 0.00 | 0.00 | 66 | |
| 20260506183000 | 56 | 141 | 2.0 | 2.0 | 0.00 | 0.00 | 0.00 | 65 | |
| 20260506182500 | 57 | 164 | 0.0 | 1.0 | 0.00 | 0.00 | 0.00 | 65 | |
| 20260506182001 | 56 | 62 | 0.0 | 0.0 | 0.00 | 0.00 | 0.00 | 66 | |
| 20260506181501 | 57 | 0 | 2.0 | 2.0 | 0.00 | 0.00 | 0.00 | 67 | |
| 20260506181000 | 57 | 269 | 0.0 | 0.0 | 0.00 | 0.00 | 0.00 | 66 | |
| 20260506180500 | 58 | 167 | 0.0 | 1.0 | 0.00 | 0.00 | 0.00 | 64 | |
| 20260506180001 | 58 | 159 | 2.0 | 4.0 | 0.00 | 0.00 | 0.00 | 63 | |
| 20260506175500 | 58 | 158 | 3.0 | 4.0 | 0.00 | 0.00 | 0.00 | 63 | |
| 20260506175000 | 59 | 162 | 2.0 | 2.0 | 0.00 | 0.00 | 0.00 | 62 | |
| 20260506174500 | 59 | 257 | 0.0 | 1.0 | 0.00 | 0.00 | 0.00 | 61 | |
| 20260506174000 | 59 | 269 | 0.0 | 0.0 | 0.00 | 0.00 | 0.00 | 60 | |
| 20260506173500 | 59 | 58 | 0.0 | 0.0 | 0.00 | 0.00 | 0.00 | 59 | |
| 20260506173001 | 60 | 296 | 1.0 | 1.0 | 0.00 | 0.00 | 0.00 | 57 | |
| 20260506172500 | 62 | 283 | 0.0 | 1.0 | 0.00 | 0.00 | 0.00 | 52 | |
| 20260506172000 | 62 | 297 | 1.0 | 2.0 | 0.00 | 0.00 | 0.00 | 50 | |
| 20260506171500 | 63 | 358 | 0.0 | 0.0 | 0.00 | 0.00 | 0.00 | 47 | |
| 20260506171000 | 64 | 156 | 0.0 | 0.0 | 0.00 | 0.00 | 0.00 | 47 | |
| 20260506170500 | 65 | 224 | 0.0 | 0.0 | 0.00 | 0.00 | 0.00 | 45 | |
| 20260506170000 | 65 | 344 | 0.0 | 0.0 | 0.00 | 0.00 | 0.00 | 44 | |
| 20260506165500 | 66 | 321 | 0.0 | 1.0 | 0.00 | 0.00 | 0.00 | 43 | |
| 20260506165000 | 66 | 327 | 0.0 | 1.0 | 0.00 | 0.00 | 0.00 | 43 | |
| 20260506164500 | 67 | 14 | 0.0 | 2.0 | 0.00 | 0.00 | 0.00 | 43 | |
| 20260506164000 | 67 | 349 | 2.0 | 3.0 | 0.00 | 0.00 | 0.00 | 41 | |
| 20260506163500 | 68 | 14 | 1.0 | 3.0 | 0.00 | 0.00 | 0.00 | 40 | |
| 20260506163000 | 68 | 35 | 2.0 | 3.0 | 0.00 | 0.00 | 0.00 | 39 | |
| 20260506162500 | 69 | 39 | 2.0 | 3.0 | 0.00 | 0.00 | 0.00 | 38 | |
| 20260506162000 | 69 | 13 | 2.0 | 3.0 | 0.00 | 0.00 | 0.00 | 38 | |
| 20260506161500 | 69 | 353 | 2.0 | 3.0 | 0.00 | 0.00 | 0.00 | 37 | |
| 20260506161000 | 69 | 337 | 3.0 | 3.0 | 0.00 | 0.00 | 0.00 | 38 | |
| 20260506160500 | 68 | 269 | 2.0 | 3.0 | 0.00 | 0.00 | 0.00 | 39 | |
| 20260506160001 | 69 | 359 | 4.0 | 4.0 | 0.00 | 0.00 | 0.00 | 38 | |
| 20260506155500 | 69 | 31 | 3.0 | 5.0 | 0.00 | 0.00 | 0.00 | 38 | |
| 20260506155000 | 69 | 13 | 3.0 | 4.0 | 0.00 | 0.00 | 0.00 | 38 | |
| 20260506154500 | 70 | 3 | 4.0 | 6.0 | 0.00 | 0.00 | 0.00 | 37 | |
| 20260506154000 | 70 | 37 | 2.0 | 4.0 | 0.00 | 0.00 | 0.00 | 38 | |
| 20260506153500 | 69 | 338 | 3.0 | 5.0 | 0.00 | 0.00 | 0.00 | 38 | |
| 20260506153000 | 70 | 6 | 4.0 | 7.0 | 0.00 | 0.00 | 0.00 | 38 | |
| 20260506152500 | 70 | 2 | 5.0 | 5.0 | 0.00 | 0.00 | 0.00 | 38 | |
| 20260506152000 | 70 | 295 | 3.0 | 4.0 | 0.00 | 0.00 | 0.00 | 39 | |
| 20260506151500 | 70 | 359 | 7.0 | 9.0 | 0.00 | 0.00 | 0.00 | 39 | |
| 20260506151000 | 71 | 344 | 4.0 | 4.0 | 0.00 | 0.00 | 0.00 | 38 | |
| 20260506150500 | 71 | 329 | 2.0 | 4.0 | 0.00 | 0.00 | 0.00 | 38 | |
| 20260506150000 | 71 | 352 | 4.0 | 5.0 | 0.00 | 0.00 | 0.00 | 37 | |
| 20260506145500 | 71 | 308 | 2.0 | 5.0 | 0.00 | 0.00 | 0.00 | 37 | |
| 20260506145000 | 71 | 350 | 5.0 | 6.0 | 0.00 | 0.00 | 0.00 | 37 | |
| 20260506144500 | 71 | 353 | 6.0 | 8.0 | 0.00 | 0.00 | 0.00 | 37 | |
| 20260506144000 | 72 | 19 | 3.0 | 5.0 | 0.00 | 0.00 | 0.00 | 36 | |
| 20260506143500 | 72 | 287 | 5.0 | 5.0 | 0.00 | 0.00 | 0.00 | 35 | |
| 20260506143000 | 72 | 333 | 3.0 | 7.0 | 0.00 | 0.00 | 0.00 | 35 | |
| 20260506142500 | 72 | 242 | 3.0 | 6.0 | 0.00 | 0.00 | 0.00 | 35 | |
| 20260506142000 | 72 | 305 | 4.0 | 4.0 | 0.00 | 0.00 | 0.00 | 35 | |
| 20260506141500 | 72 | 66 | 2.0 | 6.0 | 0.00 | 0.00 | 0.00 | 34 | |
| 20260506141000 | 73 | 324 | 4.0 | 7.0 | 0.00 | 0.00 | 0.00 | 35 | |
| 20260506140500 | 73 | 265 | 5.0 | 8.0 | 0.00 | 0.00 | 0.00 | 34 | |
| 20260506140000 | 73 | 256 | 4.0 | 6.0 | 0.00 | 0.00 | 0.00 | 34 | |
| 20260506135500 | 73 | 20 | 6.0 | 8.0 | 0.00 | 0.00 | 0.00 | 34 | |
| 20260506135000 | 73 | 334 | 3.0 | 8.0 | 0.00 | 0.00 | 0.00 | 35 | |
| 20260506134500 | 73 | 265 | 8.0 | 10.0 | 0.00 | 0.00 | 0.00 | 35 | |
| 20260506134000 | 73 | 235 | 2.0 | 4.0 | 0.00 | 0.00 | 0.00 | 35 | |
| 20260506133500 | 74 | 262 | 3.0 | 9.0 | 0.00 | 0.00 | 0.00 | 35 | |
| 20260506133000 | 73 | 359 | 9.0 | 9.0 | 0.00 | 0.00 | 0.00 | 37 | |
| 20260506132500 | 74 | 359 | 5.0 | 6.0 | 0.00 | 0.00 | 0.00 | 35 | |
| 20260506132000 | 74 | 325 | 4.0 | 7.0 | 0.00 | 0.00 | 0.00 | 33 | |
| 20260506131500 | 75 | 297 | 3.0 | 7.0 | 0.00 | 0.00 | 0.00 | 33 | |
| 20260506131000 | 75 | 351 | 3.0 | 8.0 | 0.00 | 0.00 | 0.00 | 33 | |
| 20260506130500 | 75 | 305 | 6.0 | 8.0 | 0.00 | 0.00 | 0.00 | 33 | |
| 20260506130000 | 74 | 284 | 2.0 | 4.0 | 0.00 | 0.00 | 0.00 | 33 | |
| 20260506125500 | 75 | 352 | 8.0 | 9.0 | 0.00 | 0.00 | 0.00 | 34 | |
| 20260506125000 | 74 | 344 | 6.0 | 6.0 | 0.00 | 0.00 | 0.00 | 34 | |
| 20260506124500 | 74 | 273 | 6.0 | 8.0 | 0.00 | 0.00 | 0.00 | 34 |